Time,TemperatureF,DewpointF,PressureIn,WindDirection,WindDirectionDegrees,WindSpeedMPH,WindSpeedGustMPH,Humidity,HourlyPrecipIn,Conditions,Clouds,dailyrainin,SoftwareType,DateUTC
2013-07-16 00:03:00,76.8,72.0,30.21,SE,139,0.0,-999.0,86,-99.99,,,0.00,weatherlink.com 1.10,2013-07-16 05:03:00,
2013-07-16 00:18:00,76.5,72.0,30.21,SE,139,0.0,-999.0,87,-99.99,,,0.00,weatherlink.com 1.10,2013-07-16 05:18:00,
2013-07-16 00:33:00,75.9,72.0,30.22,SE,139,0.0,-999.0,87,-99.99,,,0.00,weatherlink.com 1.10,2013-07-16 05:33:00,
2013-07-16 00:48:00,75.4,72.0,30.21,SE,139,0.0,-999.0,88,-99.99,,,0.00,weatherlink.com 1.10,2013-07-16 05:48:00,
2013-07-16 01:04:00,75.1,71.0,30.21,SE,139,0.0,-999.0,88,-99.99,,,0.00,weatherlink.com 1.10,2013-07-16 06:04:00,
2013-07-16 01:19:00,74.8,71.0,30.21,SE,139,0.0,-999.0,89,-99.99,,,0.00,weatherlink.com 1.10,2013-07-16 06:19:00,
2013-07-16 01:34:00,74.3,71.0,30.21,SE,139,0.0,-999.0,89,-99.99,,,0.00,weatherlink.com 1.10,2013-07-16 06:34:00,
2013-07-16 01:49:00,74.0,71.0,30.21,SE,139,0.0,-999.0,90,-99.99,,,0.00,weatherlink.com 1.10,2013-07-16 06:49:00,
2013-07-16 02:04:00,73.7,71.0,30.21,SE,139,0.0,-999.0,90,-99.99,,,0.00,weatherlink.com 1.10,2013-07-16 07:04:00,
2013-07-16 02:19:00,73.6,71.0,30.22,SE,139,0.0,-999.0,91,-99.99,,,0.00,weatherlink.com 1.10,2013-07-16 07:19:00,
2013-07-16 02:34:00,73.4,71.0,30.22,SE,139,0.0,-999.0,91,-99.99,,,0.00,weatherlink.com 1.10,2013-07-16 07:34:00,
2013-07-16 02:49:00,73.1,70.0,30.22,SE,139,0.0,-999.0,91,-99.99,,,0.00,weatherlink.com 1.10,2013-07-16 07:49:00,
2013-07-16 03:04:00,73.0,71.0,30.22,SE,139,0.0,-999.0,92,-99.99,,,0.00,weatherlink.com 1.10,2013-07-16 08:04:00,
2013-07-16 03:19:00,73.0,71.0,30.21,SE,139,0.0,-999.0,92,-99.99,,,0.00,weatherlink.com 1.10,2013-07-16 08:19:00,
2013-07-16 03:35:00,72.7,70.0,30.22,SE,139,0.0,-999.0,92,-99.99,,,0.00,weatherlink.com 1.10,2013-07-16 08:35:00,
2013-07-16 03:50:00,72.6,70.0,30.22,SE,139,0.0,-999.0,92,-99.99,,,0.00,weatherlink.com 1.10,2013-07-16 08:50:00,
2013-07-16 04:04:00,72.4,70.0,30.22,SE,139,0.0,-999.0,92,-99.99,,,0.00,weatherlink.com 1.10,2013-07-16 09:04:00,
2013-07-16 04:19:00,72.3,70.0,30.23,SE,139,0.0,-999.0,92,-99.99,,,0.00,weatherlink.com 1.10,2013-07-16 09:19:00,
2013-07-16 04:34:00,71.9,70.0,30.23,SE,139,0.0,-999.0,92,-99.99,,,0.00,weatherlink.com 1.10,2013-07-16 09:34:00,
2013-07-16 04:49:00,71.7,69.0,30.23,SE,139,0.0,-999.0,92,-99.99,,,0.00,weatherlink.com 1.10,2013-07-16 09:49:00,
2013-07-16 05:04:00,71.7,70.0,30.23,SE,139,0.0,-999.0,93,-99.99,,,0.00,weatherlink.com 1.10,2013-07-16 10:04:00,
2013-07-16 05:19:00,71.7,70.0,30.24,SE,139,0.0,-999.0,93,-99.99,,,0.00,weatherlink.com 1.10,2013-07-16 10:19:00,
2013-07-16 05:34:00,71.6,70.0,30.24,SE,144,0.0,-999.0,93,-99.99,,,0.00,weatherlink.com 1.10,2013-07-16 10:34:00,
2013-07-16 05:49:00,71.5,69.0,30.25,SE,144,0.0,-999.0,93,-99.99,,,0.00,weatherlink.com 1.10,2013-07-16 10:49:00,
2013-07-16 06:04:00,71.6,70.0,30.25,SE,144,0.0,-999.0,94,-99.99,,,0.00,weatherlink.com 1.10,2013-07-16 11:04:00,
2013-07-16 06:19:00,71.9,70.0,30.26,SE,144,0.0,-999.0,93,-99.99,,,0.00,weatherlink.com 1.10,2013-07-16 11:19:00,
2013-07-16 06:34:00,72.1,70.0,30.26,SE,144,0.0,-999.0,93,-99.99,,,0.00,weatherlink.com 1.10,2013-07-16 11:34:00,
2013-07-16 06:49:00,72.3,70.0,30.26,SE,144,0.0,-999.0,93,-99.99,,,0.00,weatherlink.com 1.10,2013-07-16 11:49:00,
2013-07-16 07:04:00,72.8,71.0,30.27,SE,144,0.0,-999.0,93,-99.99,,,0.00,weatherlink.com 1.10,2013-07-16 12:04:00,
2013-07-16 07:19:00,73.8,71.0,30.27,SE,144,0.0,-999.0,92,-99.99,,,0.00,weatherlink.com 1.10,2013-07-16 12:19:00,
2013-07-16 07:34:00,75.2,72.0,30.27,SE,144,0.0,-999.0,90,-99.99,,,0.00,weatherlink.com 1.10,2013-07-16 12:34:00,
2013-07-16 07:49:00,76.4,73.0,30.28,SE,144,0.0,-999.0,88,-99.99,,,0.00,weatherlink.com 1.10,2013-07-16 12:49:00,
2013-07-16 08:05:00,77.6,74.0,30.28,SE,145,0.0,-999.0,87,-99.99,,,0.00,weatherlink.com 1.10,2013-07-16 13:05:00,
2013-07-16 08:20:00,78.7,74.0,30.28,SSE,156,0.0,-999.0,84,-99.99,,,0.00,weatherlink.com 1.10,2013-07-16 13:20:00,
2013-07-16 08:35:00,79.8,74.0,30.28,South,190,0.0,-999.0,82,-99.99,,,0.00,weatherlink.com 1.10,2013-07-16 13:35:00,
2013-07-16 08:50:00,80.7,74.0,30.28,SW,214,0.0,-999.0,81,-99.99,,,0.00,weatherlink.com 1.10,2013-07-16 13:50:00,
2013-07-16 09:05:00,81.6,74.0,30.28,SSE,158,2.0,-999.0,78,-99.99,,,0.00,weatherlink.com 1.10,2013-07-16 14:05:00,
2013-07-16 09:20:00,82.6,75.0,30.28,SSW,205,0.0,-999.0,78,-99.99,,,0.00,weatherlink.com 1.10,2013-07-16 14:20:00,
2013-07-16 09:36:00,83.0,74.0,30.28,SSW,213,2.0,-999.0,73,-99.99,,,0.00,weatherlink.com 1.10,2013-07-16 14:36:00,
2013-07-16 09:51:00,83.8,74.0,30.27,South,182,0.0,-999.0,73,-99.99,,,0.00,weatherlink.com 1.10,2013-07-16 14:51:00,
2013-07-16 10:05:00,84.1,74.0,30.27,South,175,3.0,-999.0,71,-99.99,,,0.00,weatherlink.com 1.10,2013-07-16 15:05:00,
2013-07-16 10:20:00,84.5,74.0,30.27,SW,234,2.0,-999.0,70,-99.99,,,0.00,weatherlink.com 1.10,2013-07-16 15:20:00,
2013-07-16 10:35:00,84.7,74.0,30.27,SSW,198,4.0,-999.0,71,-99.99,,,0.00,weatherlink.com 1.10,2013-07-16 15:35:00,
2013-07-16 10:50:00,84.8,74.0,30.27,SW,227,0.0,-999.0,70,-99.99,,,0.00,weatherlink.com 1.10,2013-07-16 15:50:00,
2013-07-16 11:05:00,85.8,74.0,30.27,West,262,0.0,-999.0,67,-99.99,,,0.00,weatherlink.com 1.10,2013-07-16 16:05:00,
2013-07-16 11:21:00,86.3,73.0,30.26,SSW,202,0.0,-999.0,64,-99.99,,,0.00,weatherlink.com 1.10,2013-07-16 16:21:00,
2013-07-16 11:36:00,86.6,73.0,30.27,SW,231,5.0,-999.0,65,-99.99,,,0.00,weatherlink.com 1.10,2013-07-16 16:36:00,
2013-07-16 11:51:00,86.8,73.0,30.27,NW,309,0.0,-999.0,64,-99.99,,,0.00,weatherlink.com 1.10,2013-07-16 16:51:00,
2013-07-16 12:05:00,86.3,73.0,30.26,SW,224,0.0,-999.0,64,-99.99,,,0.00,weatherlink.com 1.10,2013-07-16 17:05:00,
2013-07-16 12:20:00,87.3,73.0,30.26,WSW,243,0.0,-999.0,62,-99.99,,,0.00,weatherlink.com 1.10,2013-07-16 17:20:00,
2013-07-16 12:35:00,88.2,73.0,30.26,SSW,195,5.0,-999.0,60,-99.99,,,0.00,weatherlink.com 1.10,2013-07-16 17:35:00,
2013-07-16 12:50:00,88.7,74.0,30.26,SW,223,0.0,-999.0,62,-99.99,,,0.00,weatherlink.com 1.10,2013-07-16 17:50:00,
2013-07-16 13:06:00,88.3,73.0,30.25,SW,219,0.0,-999.0,60,-99.99,,,0.00,weatherlink.com 1.10,2013-07-16 18:06:00,
2013-07-16 13:21:00,88.6,72.0,30.25,SW,221,2.0,-999.0,59,-99.99,,,0.00,weatherlink.com 1.10,2013-07-16 18:21:00,
2013-07-16 13:36:00,88.8,71.0,30.24,SW,217,5.0,-999.0,56,-99.99,,,0.00,weatherlink.com 1.10,2013-07-16 18:36:00,
2013-07-16 13:51:00,89.2,72.0,30.24,SW,233,0.0,-999.0,57,-99.99,,,0.00,weatherlink.com 1.10,2013-07-16 18:51:00,
2013-07-16 14:06:00,88.3,73.0,30.24,SW,217,0.0,-999.0,60,-99.99,,,0.00,weatherlink.com 1.10,2013-07-16 19:06:00,
2013-07-16 14:21:00,89.3,74.0,30.24,SSW,211,4.0,-999.0,60,-99.99,,,0.00,weatherlink.com 1.10,2013-07-16 19:21:00,
2013-07-16 14:36:00,89.4,72.0,30.24,SW,217,0.0,-999.0,57,-99.99,,,0.00,weatherlink.com 1.10,2013-07-16 19:36:00,
2013-07-16 14:51:00,89.2,71.0,30.24,SW,232,1.0,-999.0,55,-99.99,,,0.00,weatherlink.com 1.10,2013-07-16 19:51:00,
2013-07-16 15:06:00,90.5,73.0,30.23,NW,313,0.0,-999.0,57,-99.99,,,0.00,weatherlink.com 1.10,2013-07-16 20:06:00,
2013-07-16 15:21:00,89.6,73.0,30.23,SSW,196,4.0,-999.0,58,-99.99,,,0.00,weatherlink.com 1.10,2013-07-16 20:21:00,
2013-07-16 15:36:00,89.3,73.0,30.23,SW,220,0.0,-999.0,58,-99.99,,,0.00,weatherlink.com 1.10,2013-07-16 20:36:00,
2013-07-16 15:51:00,89.4,72.0,30.23,WSW,247,0.0,-999.0,57,-99.99,,,0.00,weatherlink.com 1.10,2013-07-16 20:51:00,
2013-07-16 16:06:00,89.5,72.0,30.22,SSW,205,4.0,-999.0,56,-99.99,,,0.00,weatherlink.com 1.10,2013-07-16 21:06:00,
2013-07-16 16:21:00,89.1,72.0,30.22,SSE,149,0.0,-999.0,57,-99.99,,,0.00,weatherlink.com 1.10,2013-07-16 21:21:00,
2013-07-16 16:36:00,89.6,72.0,30.22,SSE,159,1.0,-999.0,56,-99.99,,,0.00,weatherlink.com 1.10,2013-07-16 21:36:00,
2013-07-16 16:51:00,89.5,72.0,30.22,SSW,196,0.0,-999.0,56,-99.99,,,0.00,weatherlink.com 1.10,2013-07-16 21:51:00,
2013-07-16 17:07:00,89.4,72.0,30.22,South,173,0.0,-999.0,56,-99.99,,,0.00,weatherlink.com 1.10,2013-07-16 22:07:00,
2013-07-16 17:22:00,89.5,71.0,30.22,SSE,163,0.0,-999.0,55,-99.99,,,0.00,weatherlink.com 1.10,2013-07-16 22:22:00,
2013-07-16 17:37:00,89.9,72.0,30.22,SSE,167,0.0,-999.0,55,-99.99,,,0.00,weatherlink.com 1.10,2013-07-16 22:37:00,
2013-07-16 17:52:00,89.3,72.0,30.21,SSE,154,0.0,-999.0,56,-99.99,,,0.00,weatherlink.com 1.10,2013-07-16 22:52:00,
2013-07-16 18:06:00,89.1,72.0,30.22,SSE,157,0.0,-999.0,57,-99.99,,,0.00,weatherlink.com 1.10,2013-07-16 23:06:00,
2013-07-16 18:21:00,88.7,72.0,30.21,South,169,0.0,-999.0,58,-99.99,,,0.00,weatherlink.com 1.10,2013-07-16 23:21:00,
2013-07-16 18:37:00,88.8,72.0,30.21,South,186,0.0,-999.0,58,-99.99,,,0.00,weatherlink.com 1.10,2013-07-16 23:37:00,
2013-07-16 18:52:00,88.6,72.0,30.22,South,186,0.0,-999.0,58,-99.99,,,0.00,weatherlink.com 1.10,2013-07-16 23:52:00,
2013-07-16 19:06:00,88.5,72.0,30.22,South,186,0.0,-999.0,59,-99.99,,,0.00,weatherlink.com 1.10,2013-07-17 00:06:00,
2013-07-16 19:21:00,87.8,73.0,30.22,South,186,0.0,-999.0,62,-99.99,,,0.00,weatherlink.com 1.10,2013-07-17 00:21:00,
2013-07-16 19:36:00,87.2,73.0,30.21,South,186,0.0,-999.0,62,-99.99,,,0.00,weatherlink.com 1.10,2013-07-17 00:36:00,
2013-07-16 19:51:00,86.6,73.0,30.21,South,186,0.0,-999.0,64,-99.99,,,0.00,weatherlink.com 1.10,2013-07-17 00:51:00,
2013-07-16 20:06:00,86.2,74.0,30.21,South,186,0.0,-999.0,66,-99.99,,,0.00,weatherlink.com 1.10,2013-07-17 01:06:00,
2013-07-16 20:21:00,85.7,74.0,30.21,South,186,0.0,-999.0,69,-99.99,,,0.00,weatherlink.com 1.10,2013-07-17 01:21:00,
2013-07-16 20:36:00,84.8,74.0,30.21,South,186,0.0,-999.0,71,-99.99,,,0.00,weatherlink.com 1.10,2013-07-17 01:36:00,
2013-07-16 20:51:00,84.0,75.0,30.22,South,186,0.0,-999.0,73,-99.99,,,0.00,weatherlink.com 1.10,2013-07-17 01:51:00,
2013-07-16 21:06:00,83.0,74.0,30.22,South,186,0.0,-999.0,75,-99.99,,,0.00,weatherlink.com 1.10,2013-07-17 02:06:00,
2013-07-16 21:21:00,82.3,74.0,30.23,South,186,0.0,-999.0,77,-99.99,,,0.00,weatherlink.com 1.10,2013-07-17 02:21:00,
2013-07-16 21:36:00,81.4,74.0,30.23,South,186,0.0,-999.0,79,-99.99,,,0.00,weatherlink.com 1.10,2013-07-17 02:36:00,
2013-07-16 21:52:00,80.9,74.0,30.23,South,186,0.0,-999.0,79,-99.99,,,0.00,weatherlink.com 1.10,2013-07-17 02:52:00,
2013-07-16 22:06:00,80.5,73.0,30.23,South,186,0.0,-999.0,79,-99.99,,,0.00,weatherlink.com 1.10,2013-07-17 03:06:00,
2013-07-16 22:21:00,80.2,74.0,30.23,South,186,0.0,-999.0,80,-99.99,,,0.00,weatherlink.com 1.10,2013-07-17 03:21:00,
2013-07-16 22:36:00,79.9,73.0,30.23,South,186,0.0,-999.0,79,-99.99,,,0.00,weatherlink.com 1.10,2013-07-17 03:36:00,
2013-07-16 22:51:00,79.3,73.0,30.24,South,186,0.0,-999.0,80,-99.99,,,0.00,weatherlink.com 1.10,2013-07-17 03:51:00,
2013-07-16 23:07:00,78.8,73.0,30.24,South,186,0.0,-999.0,81,-99.99,,,0.00,weatherlink.com 1.10,2013-07-17 04:07:00,
2013-07-16 23:22:00,78.7,73.0,30.24,South,186,0.0,-999.0,82,-99.99,,,0.00,weatherlink.com 1.10,2013-07-17 04:22:00,
2013-07-16 23:37:00,78.4,73.0,30.24,South,186,0.0,-999.0,82,-99.99,,,0.00,weatherlink.com 1.10,2013-07-17 04:37:00,
2013-07-16 23:52:00,77.8,72.0,30.24,South,186,0.0,-999.0,83,-99.99,,,0.00,weatherlink.com 1.10,2013-07-17 04:52:00,